This is the latest recevied weather packets stored in our database for station/object IZ6SAC-13. If no packets are shown the sender has not sent any weather packets the latest 1 day(s).
| Time | Temp. | Humidity | Pressure | Rain* | Wind** | Luminosity | Snow |
|---|---|---|---|---|---|---|---|
| 1777971030 | 14.44° C | 85% | 1015.3 hPa | 0 mm | 0 m/s | - | - |
| 1777967419 | 13.89° C | 85% | 1015.1 hPa | 1.52 mm | 0 m/s | - | - |
| 1777965624 | 13.33° C | 84% | 1015.2 hPa | 1.52 mm | 0 m/s | - | - |
| 1777963828 | 13.89° C | 81% | 1015.3 hPa | 0.25 mm | 0 m/s | - | - |
| 1777962031 | 13.89° C | 79% | 1014.9 hPa | 0 mm | 0 m/s | - | - |
| 1777960216 | 13.89° C | 79% | 1014.8 hPa | 0 mm | 0.45 m/s, 229° | - | - |
| 1777958422 | 13.33° C | 80% | 1014.7 hPa | 0.25 mm | 0.89 m/s, 228° | - | - |
| 1777956627 | 13.33° C | 80% | 1015 hPa | 0.25 mm | 0.89 m/s, 229° | - | - |
| 1777954831 | 13.33° C | 79% | 1015.2 hPa | 0 mm | 1.34 m/s, 230° | - | - |
| 1777953033 | 13.33° C | 77% | 1015 hPa | 0 mm | 1.79 m/s, 233° | - | - |
| 1777951235 | 15° C | 62% | 1015.1 hPa | 0 mm | 1.34 m/s, 231° | - | - |
| 1777949420 | 15.56° C | 61% | 1015.2 hPa | 0 mm | 1.34 m/s, 225° | - | - |
| 1777947629 | 15.56° C | 60% | 1015.4 hPa | 0 mm | 0.89 m/s, 221° | - | - |
| 1777945830 | 15.56° C | 59% | 1015.5 hPa | 0 mm | 0 m/s | - | - |
| 1777944036 | 15.56° C | 60% | 1015.8 hPa | 0 mm | 0.45 m/s, 231° | - | - |
| 1777942219 | 15° C | 62% | 1016 hPa | 0 mm | 0 m/s | - | - |
| 1777940422 | 15° C | 62% | 1016.1 hPa | 0 mm | 0.45 m/s, 220° | - | - |
| 1777938626 | 15° C | 61% | 1016.4 hPa | 0 mm | 0.45 m/s, 222° | - | - |
| 1777936829 | 15.56° C | 62% | 1016.7 hPa | 0 mm | 0.89 m/s, 227° | - | - |
| 1777935033 | 15.56° C | 62% | 1016.8 hPa | 0 mm | 1.34 m/s, 232° | - | - |
| 1777933236 | 15° C | 64% | 1016.9 hPa | 0 mm | 0 m/s | - | - |
* Rain latest hour (hover to see other rain measurements)
** Current wind speed in m/s (hover to see current wind gust speed)